Regional Weather Roundup
Issued by NWS Newport/Morehead, NC

Home | Current Version | Previous Version | Text Only | Print | Product List | Glossary On
Versions: 1 2 3 4 5 6 7 8 9 10 11 12 13 14 15 16 17 18 19 20 21 22 23 24 25 26 27 28 29 30 31 32 33 34 35 36 37 38 39 40 41 42 43 44 45 46 47 48 49 50
000
ASUS42 KMHX 280725
RWRMHX
WEATHER ROUNDUP FOR EASTERN NORTH CAROLINA
NATIONAL WEATHER SERVICE NEWPORT/MOREHEAD CITY NC
300 AM EDT FRI AUG 28 2015

NOTE: "FAIR" INDICATES FEW OR NO CLOUDS BELOW 12,000 FEET
WITH NO SIGNIFICANT WEATHER AND/OR OBSTRUCTIONS TO VISIBILITY

NCZ015>017-031-032-045>047-102-103-280800-
NORTH COAST

CITY           SKY/WX    TMP DP  RH WIND       PRES   REMARKS
EDENTON        CLOUDY    67  62  84 CALM      30.11S
ELIZABETH CITY CLOUDY    72  65  78 NE6       30.10F
KITTY HAWK     CLOUDY    75  61  60 E7        30.09S
MANTEO         MOCLDY    74  62  65 NE9       30.09F

$$

NCZ045>047-081-094-103-104-280800-
CENTRAL COAST

CITY           SKY/WX    TMP DP  RH WIND       PRES   REMARKS
FRISCO         CLOUDY    73  68  84 NE8G17    30.07F
SWANQUARTER    NOT AVBL

$$

NCZ095-097-098-100-101-280800-
SOUTHERN COAST

CITY           SKY/WX    TMP DP  RH WIND       PRES   REMARKS
BEAUFORT       PTCLDY    71  68  90 N10       30.06F
CEDAR ISLAND   NOT AVBL
JACKSONVILLE   MOCLDY    69  63  81 N5        30.07F
PINEY ISLAND   CLOUDY   N/A N/A N/A NE16      30.06F
WILMINGTON     MOCLDY    69  65  86 NE8       30.06F


$$

NCZ011>013-027>030-043-044-078>080-089-090>093-098-280800-
COASTAL PLAIN

CITY           SKY/WX    TMP DP  RH WIND       PRES   REMARKS
AHOSKIE        CLOUDY    64  62  92 CALM      30.12S
CLINTON        PTCLDY    69  65  88 CALM      30.09F
ELIZABETHTOWN  PTCLDY    68  64  88 CALM      30.08F
GOLDSBORO      MOCLDY    66  64  92 E2        30.09F
GREENVILLE     MOCLDY    64  64 100 CALM      30.12S
HAVELOCK       PTCLDY    72  65  78 NE12      30.08F
KENANSVILLE      N/A     67  65  91 CALM      30.10F
KINSTON        MOCLDY    67  64  91 CALM      30.11S
NEW BERN       CLOUDY    70  64  81 NE6       30.09F
RICHLANDS      MOCLDY    66  61  82 N5        30.08F
ROCKY MOUNT    PTCLDY    63  61  93 CALM      30.12F
WASHINGTON     CLOUDY    68  64  87 CALM      30.10F
WHITEVILLE     PTCLDY    68  64  86 N3        30.07S

$$

AMZ130-135-150-152-154-156-158-170-250-252-270-ANZ085-086-088-633-658-670-280800-
MARINE OBSERVATIONS

STATION/POSITION TIME  TEMP    WIND        PRES    WAVE   SWELL
                       AIR SEA DIR/SP/G            HT/PER HT/PER
                 (UTC) (F)     (DEG/KT/KT) (MB)    (FT/S) (FT/S)
CHESAPEAKE LIGHT 0700   75      40/ 10/ 10 1020.2
64 E VA BEACH    0650   77 79   30/ 12/ 16 1019.0    3/ 9   3/ 9
DUCK             0700   76 78   40/ 14/ 16 1018.3
2 E DUCK         0711      78                N/A     4/11   2/11
OREGON INLET     0700   75 77   20/ 13/ 17 1018.5
13E OREGON INLT  0700      79                N/A     5/ 5   2/13
HATTERAS CG      0700   76 80   40/  9/ 15 1017.8
DIAMOND BUOY     0650   74 83  180/  2/  6 1018.3    4/ 7   3/ 7
CAPE LOOKOUT     0700   76      10/ 13/ 15 1017.3
BEAUFORT LAB     0700   73 80   20/ 10/ 13 1017.3
30 SE NEW RVR IN 0608   78 82  120/  4/  6 1017.9
30 SE NEW RVR IN 0625      82                N/A     3/ 5   2/11
27 SE WRIGHTSVLE 0700   75 82   60/ 12/ 14   N/A
5 SE WRIGHTSVLE  0608   77 82   50/ 16/ 21 1017.6
225 S CAPE HAT   0650   79 83   90/  4/  6 1015.8    3/ 8   3/ 8
41 SE CHARLESTON 0650   81 84     CALM     1016.1    2/ 9   2/ 9

$$


USA.gov is the U.S. government's official web portal to all federal, state and local government web resources and services.